PST,Max TemperatureF,Mean TemperatureF,Min TemperatureF,Max Dew PointF,MeanDew PointF,Min DewpointF,Max Humidity, Mean Humidity, Min Humidity, Max Sea Level PressureIn, Mean Sea Level PressureIn, Min Sea Level PressureIn, Max VisibilityMiles, Mean VisibilityMiles, Min VisibilityMiles, Max Wind SpeedMPH, Mean Wind SpeedMPH, Max Gust SpeedMPH,PrecipitationIn, CloudCover, Events, WindDirDegrees
2014-2-1,50,42,33,40,35,32,100,81,61,30.22,30.16,30.03,10,6,0,9,2,10,0.01,5,Fog,351
2014-2-2,47,41,35,36,34,31,92,76,60,30.03,29.99,29.96,10,10,10,10,4,14,0.00,7,,18
2014-2-3,45,38,31,36,34,30,100,83,65,30.17,30.09,30.01,10,10,8,10,2,12,0.02,8,Rain,278
2014-2-4,36,32,26,31,26,16,100,79,58,30.34,30.24,30.18,10,7,0,16,7,22,0.05,7,Fog-Snow,23
2014-2-5,32,26,22,15,6,2,63,48,32,30.40,30.33,30.22,10,10,10,24,16,34,0.00,0,,45
2014-2-6,27,22,19,19,14,2,92,67,41,30.19,29.84,29.74,10,4,0,24,14,32,0.10,8,Fog-Snow,21
2014-2-7,26,22,19,25,21,16,92,87,81,29.94,29.79,29.65,10,4,0,16,8,19,0.22,8,Fog-Snow,357
2014-2-8,31,28,24,29,26,23,100,89,78,29.99,29.89,29.73,10,4,0,23,9,33,0.18,8,Fog-Rain-Snow,2
2014-2-9,35,31,29,33,31,29,100,96,92,30.13,30.08,29.99,10,4,0,10,5,12,0.01,8,Fog-Rain-Snow,359
2014-2-10,46,39,31,44,36,31,100,93,86,30.21,30.17,30.13,10,5,0,15,5,21,0.21,7,Fog-Rain,192
2014-2-11,50,47,44,49,46,44,100,97,93,30.19,30.08,29.77,10,8,2,23,10,30,0.67,8,Rain,191
2014-2-12,53,50,48,52,50,47,100,92,83,29.96,29.86,29.73,10,8,2,29,10,43,0.27,8,Rain,198
2014-2-13,55,50,45,51,44,40,93,76,59,30.18,30.03,29.83,10,10,5,16,6,24,0.22,3,Rain,196
2014-2-14,54,48,42,50,47,41,100,86,71,30.01,29.87,29.74,10,8,2,17,7,25,0.66,6,Rain,220
2014-2-15,55,48,42,52,44,38,100,91,82,29.93,29.64,29.41,10,8,2,25,8,41,0.80,7,Rain,96
2014-2-16,51,44,38,42,39,36,96,79,61,30.10,29.98,29.84,10,10,5,32,16,45,0.14,7,Rain,198
2014-2-17,54,48,44,47,41,37,100,80,59,30.04,29.90,29.80,10,9,4,36,15,48,0.58,7,Rain,206
2014-2-18,51,46,40,48,45,39,93,90,86,30.04,29.90,29.77,10,8,2,29,13,40,0.73,6,Rain,207
2014-2-19,48,42,36,43,40,37,100,86,71,30.26,30.19,30.04,10,9,2,18,8,26,0.20,6,Rain,198
2014-2-20,47,42,38,46,43,38,100,95,89,30.30,30.27,30.20,10,8,0,23,9,32,0.19,7,Fog-Rain,191
2014-2-21,53,44,36,44,38,34,100,80,59,30.33,30.30,30.24,10,4,0,9,2,10,0.00,7,Fog,41
2014-2-22,49,41,32,36,32,31,89,72,54,30.26,30.18,30.08,10,10,10,9,4,13,0.00,5,,26
2014-2-23,49,38,29,45,35,29,100,83,66,30.09,30.02,29.98,10,7,0,15,3,18,T,5,Fog-Rain,208
2014-2-24,48,45,41,48,45,38,100,93,86,30.05,30.03,30.01,10,7,2,13,6,17,0.33,8,Rain,36
2014-2-25,54,47,41,37,34,30,86,68,50,30.04,30.00,29.96,10,10,10,21,14,27,0.00,1,,14
2014-2-26,53,45,37,35,32,30,85,68,50,29.94,29.84,29.65,10,10,10,18,10,24,0.00,3,,21
2014-2-27,46,42,38,44,39,31,100,81,62,29.77,29.74,29.64,10,8,2,10,3,13,0.16,8,Rain,38
2014-2-28,59,49,41,42,40,36,100,78,55,29.74,29.58,29.41,10,6,1,16,10,21,0.00,5,,11